User: anonymous   Login
Location: *
(43.0833°N, 13.0500°E)
Time: 08:37:54
(UTC+00:00)
Language:

Cosmos 2056 Rocket - Orbit

View from above orbital plane
View from above orbital plane
View from above satellite
View from above satellite

Ground track
Ground track

The orbit data is extracted from the following two-line orbital elements,

1 20433U 90004B   20025.50738123 -.00000040  00000-0 -44217-5 0  9992
2 20433  74.0342  47.7615 0042027 303.6437 164.0496 14.36085112571908
Epoch (UTC): 25 January 2020 12:10:37
Eccentricity: 0.0042027
inclination: 74.0342°
perigee height: 741 km
apogee height: 801 km
right ascension of ascending node: 47.7615°
argument of perigee: 303.6437°
revolutions per day: 14.36085112
mean anomaly at epoch: 164.0496°
orbit number at epoch: 57190

The dashed part of the orbit path shows where the satellite is in the earth's shadow,  

DLR